User: anonymous   Login
Location: Rehoboth Beach
(38.7438°N, 75.1341°W)
Time: 09:05:27
(UTC-05:00)
Language:

Cosmos 1452 Rocket - Orbit

View from above orbital plane
View from above orbital plane
View from above satellite
View from above satellite

Ground track
Ground track

The orbit data is extracted from the following two-line orbital elements,

1 13992U 83031B   16042.96294098  .00000144  00000-0  58568-4 0  9994
2 13992  74.0527 188.0458 0006118 288.2410 210.0627 14.36013130718293
Epoch (UTC): 11 February 2016 23:06:38
Eccentricity: 0.0006118
inclination: 74.0527°
perigee height: 767 km
apogee height: 776 km
right ascension of ascending node: 188.0458°
argument of perigee: 288.2410°
revolutions per day: 14.36013130
mean anomaly at epoch: 210.0627°
orbit number at epoch: 71829

The dashed part of the orbit path shows where the satellite is in the earth's shadow,  

DLR